Regional Weather Roundup
Issued by NWS Jackson, KY

Home | Current Version | Previous Version | Graphics & Text | Print | Product List | Glossary On
Versions: 1 2 3 4 5 6 7 8 9 10 11 12 13 14 15 16 17 18 19 20 21 22 23 24 25 26 27 28 29 30 31 32 33 34 35 36 37 38 39 40 41 42 43 44 45 46 47 48 49 50
000
ASUS43 KJKL 211910
RWRJKL

EAST KENTUCKY HOURLY WEATHER ROUNDUP
NATIONAL WEATHER SERVICE JACKSON KY
300 PM EDT THU AUG 21 2014

NOTE: "FAIR" INDICATES FEW OR NO CLOUDS BELOW 12,000 FEET WITH
NO SIGNIFICANT WEATHER AND/OR OBSTRUCTIONS TO VISIBILITY.

* THESE REPORTS ARE NOT UNDER NWS QUALITY CONTROL AND MAY NOT
  REPORT WEATHER SUCH AS PRECIPITATION AND FOG.

KYZ079-080-083-085-087-088-110-112-115-119-120-212000
...EASTERN KENTUCKY...

CITY           SKY/WX    TMP DP  RH WIND       PRES   REMARKS
JACKSON        PTSUNNY   85  73  67 VRB5      30.11F HX  91
LONDON         MOSUNNY   87  70  56 SW9       30.13F HX  92
SOMERSET*      CLOUDY    86  72  62 W12       30.14F HX  92
MONTICELLO*    SUNNY     88  75  65 SW5       30.15F HX  97
WILLIAMSBURG*  MOSUNNY   86  73  66 W6        30.14  HX  93
MIDDLESBORO*   MOSUNNY   85  73  66 S5        30.15F HX  91
HARLAN APT*    PTCLDY    84  70  61 MISG      30.15F
HAZARD APT*    PTCLDY    86  72  62 SW8       30.12  HX  92
BLACK MTN*       N/A     73  68  83 W7          N/A
PIKEVILLE APT* MOSUNNY   82  73  74 SW5       30.13F
BIG SANDY*     MOCLDY    82  73  73 CALM      30.11F
MOREHEAD APT*  LGT RAIN  77  75  94 N6        30.13F
$$

KYZ035-036-041-042-044-050-067-078-099-212000
...CENTRAL KENTUCKY...

CITY           SKY/WX    TMP DP  RH WIND       PRES   REMARKS
MT STERLING*   LGT RAIN  73  72  94 CALM      30.13R
FLEMING/MASON* LGT RAIN  73  72  94 W7        30.12F
DANVILLE*      LGT RAIN  86  73  66 W8        30.12F HX  93
RICHMOND*      PTSUNNY   84  72  65 W7        30.10F
LEXINGTON      LGT RAIN  83  73  72 W7        30.11S
FRANKFORT      LGT RAIN  80  74  81 SW7       30.09S
$$

KYZ091>093-OHZ055-061-077-WVZ005-015-034-035-042-212000
...SOUTHERN OHIO/WEST VIRGINIA...

CITY           SKY/WX    TMP DP  RH WIND       PRES   REMARKS
COVINGTON      CLOUDY    80  73  79 S8        30.07F
COLUMBUS       LGT RAIN  75  70  84 S7        30.06F
DAYTON         RAIN      72  69  90 S10       30.09S FOG
WILMINGTON     CLOUDY    71  67  87 S10       30.08F
HUNTINGTON     RAIN      77  70  79 N7G21     30.10R
CHARLESTON     TSTM      74  70  87 VRB5      30.11R
PINEVILLE*     CLOUDY    85  72  65 MISG      30.20F HX  90
BECKLEY        LGT RAIN  77  64  64 SW8       30.19S
BLUEFIELD      PTSUNNY   80  66  62 W6        30.22F
$$

VAZ002-007-008-TNZ017-027-036-066-071-212000
...SOUTHWEST VIRGINIA/EAST TENNESSEE...

CITY           SKY/WX    TMP DP  RH WIND       PRES   REMARKS
WISE*          PTSUNNY   79  68  69 CALM      30.23F THUNDER
JONESVILLE*      N/A     84  72  65 CALM      30.18F
ABINGDON*      PTSUNNY   81  70  68 W8        30.21F
BRISTOL        MOSUNNY   83  68  60 VRB5      30.18F
KNOXVILLE      PTSUNNY   87  72  60 CALM      30.15F HX  93
OAK RIDGE      CLOUDY    89  73  59 VRB3      30.15F HX  97
CROSSVILLE     MOSUNNY   84  67  56 W12       30.21F
NASHVILLE      MOSUNNY   92  71  50 W6        30.11F HX  98
$$

...KEY TO REMARKS...
VSB - VISIBILITY IN MILES
WCI - WIND CHILL INDEX
HX  - HEAT INDEX

$$


USA.gov is the U.S. government's official web portal to all federal, state and local government web resources and services.